K5GHS-1 Weather Reports


Display with metric or nautical units.
time (UTC)temp
F
wind
direction
speed
MPH
gust
MPH
rain 1hr
in
rain 24hr
in
rain mn
in
humidity
%
barometer
mb
20260505011139 77 106 2.0 11.0 0.00 0.00 0.00 66 1004.4
20260505010640 77 80 1.0 3.0 0.00 0.00 0.00 66 1004.4
20260505010137 77 154 3.0 9.0 0.00 0.00 0.00 65 1004.1
20260505005633 77 165 3.0 13.0 0.00 0.00 0.00 65 1004.3
20260505005130 77 96 2.0 9.0 0.00 0.00 0.00 65 1004.2
20260505004627 77 89 1.0 5.0 0.00 0.00 0.00 64 1004.2
20260505004124 77 106 5.0 11.0 0.00 0.00 0.00 64 1004.0
20260505003621 77 146 3.0 5.0 0.00 0.00 0.00 64 1004.2
20260505003119 77 134 5.0 8.0 0.00 0.00 0.00 63 1004.3
20260505002614 78 80 1.0 5.0 0.00 0.00 0.00 63 1004.3
20260505002113 78 91 2.0 3.0 0.00 0.00 0.00 63 1004.6
20260505001609 78 135 2.0 6.0 0.00 0.00 0.00 63 1004.5
20260505001107 78 190 5.0 9.0 0.00 0.00 0.00 62 1004.3
20260505000604 78 150 2.0 5.0 0.00 0.00 0.00 62 1004.3
20260504235558 79 98 2.0 6.0 0.00 0.00 0.00 61 1004.5
20260504235055 79 163 5.0 7.0 0.00 0.00 0.00 61 1004.2
20260504234552 79 144 2.0 8.0 0.00 0.00 0.00 61 1004.7
20260504234049 79 135 5.0 9.0 0.00 0.00 0.00 61 1004.5
20260504233544 79 100 2.0 5.0 0.00 0.00 0.00 61 1004.5
20260504233041 79 155 3.0 5.0 0.00 0.00 0.00 61 1004.6
20260504232538 79 130 4.0 7.0 0.00 0.00 0.00 61 1004.6
20260504232036 79 169 4.0 10.0 0.00 0.00 0.00 60 1004.5
20260504231532 79 156 3.0 9.0 0.00 0.00 0.00 60 1004.6
20260504231028 80 151 3.0 13.0 0.00 0.00 0.00 59 1004.9
20260504230525 81 220 5.0 11.0 0.00 0.00 0.00 58 1004.7
20260504230024 81 130 2.0 7.0 0.00 0.00 0.00 58 1004.5
20260504225520 82 134 3.0 7.0 0.00 0.00 0.00 57 1004.7
20260504225017 82 136 3.0 6.0 0.00 0.00 0.00 56 1004.9
20260504224514 81 148 3.0 3.0 0.00 0.00 0.00 57 1004.9
20260504224011 81 135 4.0 11.0 0.00 0.00 0.00 57 1005.1
20260504223508 82 73 2.0 5.0 0.00 0.00 0.00 56 1005.0
20260504223004 82 152 2.0 8.0 0.00 0.00 0.00 57 1004.7
20260504222501 82 111 1.0 7.0 0.00 0.00 0.00 57 1004.7
20260504221958 82 125 2.0 7.0 0.00 0.00 0.00 56 1004.8
20260504221455 82 187 2.0 2.0 0.00 0.00 0.00 55 1005.0
20260504220952 83 164 3.0 13.0 0.00 0.00 0.00 55 1005.3
20260504220449 83 150 3.0 5.0 0.00 0.00 0.00 55 1005.1
20260504215945 82 109 1.0 6.0 0.00 0.00 0.00 56 1005.0
20260504215442 82 83 1.0 8.0 0.00 0.00 0.00 56 1005.2
20260504214939 82 129 4.0 6.0 0.00 0.00 0.00 55 1005.2
20260504214435 81 126 2.0 5.0 0.00 0.00 0.00 57 1005.5
20260504213932 81 71 4.0 8.0 0.00 0.00 0.00 56 1005.7
20260504213428 81 142 6.0 10.0 0.00 0.00 0.00 56 1005.6
20260504212926 82 151 3.0 8.0 0.00 0.00 0.00 55 1005.6
20260504212421 81 148 2.0 9.0 0.00 0.00 0.00 56 1005.6
20260504211919 81 161 2.0 7.0 0.00 0.00 0.00 56 1005.9
20260504211415 81 56 2.0 7.0 0.00 0.00 0.00 56 1006.2
20260504210913 81 81 2.0 7.0 0.00 0.00 0.00 55 1006.2
20260504210410 81 170 6.0 9.0 0.00 0.00 0.00 55 1006.1
20260504205907 82 167 5.0 9.0 0.00 0.00 0.00 54 1006.4
20260504205404 81 150 2.0 5.0 0.00 0.00 0.00 55 1006.2
20260504204902 82 152 7.0 9.0 0.00 0.00 0.00 54 1006.2
20260504204400 81 59 1.0 3.0 0.00 0.00 0.00 54 1006.2
20260504203900 81 125 3.0 7.0 0.00 0.00 0.00 54 1006.7
20260504203356 81 87 1.0 11.0 0.00 0.00 0.00 55 1006.7
20260504202852 80 57 3.0 6.0 0.00 0.00 0.00 55 1006.7
20260504202349 81 103 3.0 11.0 0.00 0.00 0.00 54 1006.9
20260504201845 82 153 2.0 8.0 0.00 0.00 0.00 53 1006.9
20260504201343 81 126 1.0 10.0 0.00 0.00 0.00 54 1007.2
20260504200840 81 109 3.0 5.0 0.00 0.00 0.00 53 1007.0
20260504200337 81 106 6.0 9.0 0.00 0.00 0.00 52 1007.5
20260504195833 80 124 2.0 9.0 0.00 0.00 0.00 54 1007.2
20260504195329 81 48 3.0 5.0 0.00 0.00 0.00 52 1007.4
20260504194826 81 142 1.0 2.0 0.00 0.00 0.00 53 1007.3
20260504194322 81 145 2.0 2.0 0.00 0.00 0.00 53 1007.6
20260504193818 80 111 2.0 5.0 0.00 0.00 0.00 53 1007.7
20260504193316 79 146 2.0 6.0 0.00 0.00 0.00 54 1007.6
20260504192814 80 159 3.0 7.0 0.00 0.00 0.00 53 1007.7
20260504192312 79 115 4.0 7.0 0.00 0.00 0.00 54 1008.0
20260504191810 80 147 6.0 9.0 0.00 0.00 0.00 53 1008.1
20260504191308 81 82 2.0 5.0 0.00 0.00 0.00 51 1008.4
20260504190803 80 147 1.0 7.0 0.00 0.00 0.00 52 1008.2
20260504190259 80 89 5.0 9.0 0.00 0.00 0.00 51 1008.3
20260504185755 80 94 0.0 2.0 0.00 0.00 0.00 52 1008.5
20260504185253 79 136 3.0 6.0 0.00 0.00 0.00 52 1008.6
20260504184749 79 104 2.0 7.0 0.00 0.00 0.00 52 1008.4
20260504184244 79 136 5.0 9.0 0.00 0.00 0.00 52 1008.4
20260504183740 80 141 3.0 5.0 0.00 0.00 0.00 50 1008.5
20260504183238 80 121 3.0 9.0 0.00 0.00 0.00 51 1008.6
20260504182736 79 81 2.0 8.0 0.00 0.00 0.00 51 1008.7
20260504182233 79 156 3.0 9.0 0.00 0.00 0.00 50 1008.7
20260504181730 78 130 4.0 9.0 0.00 0.00 0.00 50 1008.9
20260504181227 78 142 3.0 5.0 0.00 0.00 0.00 50 1008.9
20260504180726 78 147 1.0 7.0 0.00 0.00 0.00 50 1009.0
20260504180225 78 177 6.0 13.0 0.00 0.00 0.00 49 1008.9
20260504175722 78 46 2.0 2.0 0.00 0.00 0.00 48 1009.1
20260504175218 78 61 1.0 6.0 0.00 0.00 0.00 49 1009.0
20260504174717 77 114 3.0 8.0 0.00 0.00 0.00 49 1009.2
20260504174214 77 115 5.0 9.0 0.00 0.00 0.00 49 1009.4
20260504173710 77 161 5.0 8.0 0.00 0.00 0.00 49 1009.6
20260504173208 77 104 1.0 8.0 0.00 0.00 0.00 50 1009.4
20260504172704 76 98 3.0 8.0 0.00 0.00 0.00 50 1009.7
20260504172200 76 109 2.0 6.0 0.00 0.00 0.00 50 1009.5
20260504171657 77 155 3.0 9.0 0.00 0.00 0.00 49 1009.8
20260504171154 77 120 3.0 3.0 0.00 0.00 0.00 48 1009.9
20260504170650 76 129 5.0 9.0 0.00 0.00 0.00 49 1010.2
20260504170148 75 138 1.0 9.0 0.00 0.00 0.00 49 1010.0
20260504151028 73 63 0.0 7.0 0.00 0.00 0.00 57 1011.1
20260504150525 72 48 1.0 6.0 0.00 0.00 0.00 58 1011.1
20260504140951 69 78 1.0 5.0 0.00 0.00 0.00 63 1011.3
20260504140447 69 46 1.0 2.0 0.00 0.00 0.00 64 1011.4
20260504130412 66 94 1.0 2.0 0.00 0.00 0.00 70 1011.3
20260504110259 64 93 1.0 1.0 0.00 0.00 0.00 70 1011.0
20260504100217 64 93 0.0 1.0 0.00 0.00 0.00 69 1011.5
20260504090140 65 83 1.0 3.0 0.00 0.00 0.00 63 1011.8
20260504081610 66 87 0.0 1.0 0.00 0.00 0.00 59 1012.1
20260504081106 66 88 1.0 1.0 0.00 0.00 0.00 59 1011.9
20260504080603 66 105 1.0 2.0 0.00 0.00 0.00 58 1011.8
20260504050415 69 88 1.0 2.0 0.00 0.00 0.00 54 1014.0
20260504045912 69 125 1.0 1.0 0.00 0.00 0.00 53 1014.0
20260504045408 69 102 1.0 3.0 0.00 0.00 0.00 53 1014.0
20260504044905 70 110 1.0 1.0 0.00 0.00 0.00 53 1013.9
20260504044402 70 132 2.0 3.0 0.00 0.00 0.00 53 1014.1
20260504043900 70 89 0.0 2.0 0.00 0.00 0.00 52 1014.1
20260504043356 70 118 1.0 1.0 0.00 0.00 0.00 52 1014.1
20260504042854 70 112 2.0 2.0 0.00 0.00 0.00 51 1014.0
20260504042349 70 95 1.0 2.0 0.00 0.00 0.00 50 1013.9
20260504041846 70 123 1.0 1.0 0.00 0.00 0.00 50 1014.4
20260504041342 70 96 1.0 1.0 0.00 0.00 0.00 49 1014.3
20260504040838 71 86 0.0 1.0 0.00 0.00 0.00 49 1014.3
20260504040336 71 79 1.0 1.0 0.00 0.00 0.00 48 1014.2
20260504035832 71 85 1.0 2.0 0.00 0.00 0.00 48 1014.3
20260504035330 71 114 1.0 2.0 0.00 0.00 0.00 48 1014.2
20260504034827 71 108 1.0 1.0 0.00 0.00 0.00 48 1014.1
20260504034325 71 116 0.0 1.0 0.00 0.00 0.00 48 1014.2
20260504033821 71 90 0.0 1.0 0.00 0.00 0.00 48 1014.3
20260504033320 71 101 1.0 2.0 0.00 0.00 0.00 47 1014.1
20260504032815 71 99 2.0 3.0 0.00 0.00 0.00 47 1014.3
20260504032313 72 96 2.0 3.0 0.00 0.00 0.00 47 1014.1
20260504031809 72 116 1.0 1.0 0.00 0.00 0.00 47 1014.3
20260504031307 72 107 1.0 1.0 0.00 0.00 0.00 46 1014.0
20260504030803 72 146 2.0 3.0 0.00 0.00 0.00 46 1014.0
20260504030300 72 102 1.0 2.0 0.00 0.00 0.00 46 1014.0
20260504025756 72 101 1.0 1.0 0.00 0.00 0.00 46 1013.9
20260504025254 72 93 1.0 2.0 0.00 0.00 0.00 45 1014.1
20260504024750 73 77 0.0 2.0 0.00 0.00 0.00 45 1013.8
20260504024247 73 91 2.0 2.0 0.00 0.00 0.00 45 1014.1
20260504023744 73 96 0.0 2.0 0.00 0.00 0.00 44 1014.0
20260504023240 73 126 1.0 5.0 0.00 0.00 0.00 44 1014.1
20260504022736 73 113 1.0 3.0 0.00 0.00 0.00 44 1014.0
20260504022232 73 99 1.0 5.0 0.00 0.00 0.00 44 1014.1
20260504021730 74 97 2.0 2.0 0.00 0.00 0.00 43 1013.9
20260504021227 74 80 1.0 5.0 0.00 0.00 0.00 43 1013.9
20260504020723 74 111 2.0 3.0 0.00 0.00 0.00 43 1014.0
20260504020220 74 92 2.0 2.0 0.00 0.00 0.00 43 1013.7
20260504015716 74 110 1.0 2.0 0.00 0.00 0.00 43 1013.8
20260504015213 74 97 1.0 2.0 0.00 0.00 0.00 43 1013.8
20260504014708 74 143 0.0 1.0 0.00 0.00 0.00 42 1013.7
20260504014206 75 99 0.0 1.0 0.00 0.00 0.00 42 1013.9
20260504013703 75 116 1.0 2.0 0.00 0.00 0.00 41 1013.8
20260504013200 75 90 1.0 2.0 0.00 0.00 0.00 41 1013.8
20260504012657 75 88 1.0 1.0 0.00 0.00 0.00 40 1013.7
20260504012155 75 96 2.0 3.0 0.00 0.00 0.00 38 1013.6
20260504011652 76 132 1.0 2.0 0.00 0.00 0.00 37 1013.5